Location: Écuvilly
(49.6505°N, 2.9206°E)
Time: 17:55:32
(UTC+00:00)

Cosmos 1862 - Pass Details

Date: 17 November 2025
Orbit: 473 x 485 km, 82.5° (Epoch: 08 December)

Event Time Altitude Azimuth Distance (km) Brightness Sun altitude
Rises 18:17:06 0° 346° (NNW) 2,542 6.8 -21.5°
Reaches altitude 10° 18:19:14 10° 343° (NNW) 1,660 5.9 -21.8°
Maximum altitude 18:22:47 57° 264° (W) 569 3.6 -22.4°
Drops below altitude 10° 18:26:20 10° 185° (S) 1,653 5.8 -23.0°
Sets 18:28:27 0° 181° (S) 2,530 6.8 -23.3°
